J990KT WARR-WARR

Flight info

Callsign J990KT
Flight time 0h 32m
Altitude 2000
Route CIRCUIT PATTERN
Aircraft PC21/L-SG/C

Departure

Time 2026-05-08 18:35
Airport Juanda International Airport (WARR)

Arrival

Time 2026-05-08 19:08
Airport Juanda International Airport (WARR)
Time Latitude Longitude Altitude Speed Heading
2026-05-08 18:23 -7.38405 112.78378 5 ft 0 kts 189°
2026-05-08 18:30 -7.38407 112.78377 5 ft 1 kts 224°
2026-05-08 18:30 -7.38392 112.78371 5 ft 8 kts 18°
2026-05-08 18:31 -7.38339 112.78356 5 ft 10 kts 305°
2026-05-08 18:31 -7.38319 112.78269 5 ft 15 kts 278°
2026-05-08 18:31 -7.38299 112.78159 5 ft 16 kts 280°
2026-05-08 18:31 -7.38281 112.78045 5 ft 17 kts 280°
2026-05-08 18:32 -7.38234 112.77945 5 ft 16 kts 339°
2026-05-08 18:32 -7.38125 112.77957 4 ft 16 kts 10°
2026-05-08 18:32 -7.38019 112.77975 4 ft 13 kts 10°
2026-05-08 18:32 -7.37962 112.77992 4 ft 5 kts 30°
2026-05-08 18:33 -7.37932 112.78012 4 ft 9 kts 35°
2026-05-08 18:33 -7.37883 112.78056 4 ft 8 kts 68°
2026-05-08 18:33 -7.37882 112.78061 4 ft 0 kts 97°
2026-05-08 18:35 -7.37930 112.78366 4 ft 96 kts 99°
2026-05-08 18:35 -7.38092 112.79233 284 ft 141 kts 100°
2026-05-08 18:35 -7.38364 112.80221 1009 ft 156 kts 107°
2026-05-08 18:36 -7.38715 112.81295 1796 ft 160 kts 110°
2026-05-08 18:36 -7.39124 112.82293 2749 ft 150 kts 118°
2026-05-08 18:36 -7.38839 112.83119 3563 ft 167 kts 30°
2026-05-08 18:36 -7.37336 112.83287 2814 ft 244 kts
2026-05-08 18:37 -7.35704 112.83111 3032 ft 244 kts 321°
2026-05-08 18:37 -7.35227 112.81423 2326 ft 257 kts 274°
2026-05-08 18:37 -7.35034 112.79643 2157 ft 255 kts 274°
2026-05-08 18:37 -7.34836 112.77873 2135 ft 253 kts 276°
2026-05-08 18:38 -7.34633 112.76126 2191 ft 250 kts 275°
2026-05-08 18:38 -7.34419 112.74382 2186 ft 251 kts 276°
2026-05-08 18:38 -7.34153 112.72580 2067 ft 281 kts 277°
2026-05-08 18:38 -7.33855 112.70480 2038 ft 317 kts 277°
2026-05-08 18:39 -7.35027 112.69233 2035 ft 271 kts 192°
2026-05-08 18:39 -7.36483 112.69832 1521 ft 280 kts 104°
2026-05-08 18:39 -7.36882 112.71982 565 ft 337 kts 99°
2026-05-08 18:39 -7.37294 112.74353 205 ft 345 kts 99°
2026-05-08 18:40 -7.37670 112.76642 95 ft 304 kts 98°
2026-05-08 18:40 -7.37969 112.78557 25 ft 277 kts 98°
2026-05-08 18:40 -7.38300 112.80576 85 ft 302 kts 97°
2026-05-08 18:40 -7.38584 112.82519 1624 ft 268 kts 99°
2026-05-08 18:41 -7.37651 112.83735 1874 ft 307 kts
2026-05-08 18:41 -7.35986 112.82823 2248 ft 312 kts 287°
2026-05-08 18:41 -7.35599 112.80592 2159 ft 335 kts 277°
2026-05-08 18:41 -7.35269 112.78210 2132 ft 349 kts 277°
2026-05-08 18:42 -7.34954 112.75776 2068 ft 355 kts 276°
2026-05-08 18:42 -7.34645 112.73337 1987 ft 354 kts 276°
2026-05-08 18:42 -7.34318 112.70890 1955 ft 350 kts 268°
2026-05-08 18:42 -7.36102 112.70549 2072 ft 306 kts 142°
2026-05-08 18:43 -7.37047 112.72567 920 ft 348 kts 96°
2026-05-08 18:43 -7.37348 112.74700 428 ft 238 kts 99°
2026-05-08 18:43 -7.37556 112.76004 217 ft 160 kts 99°
2026-05-08 18:43 -7.37706 112.76951 58 ft 117 kts 99°
2026-05-08 18:44 -7.37818 112.77656 4 ft 85 kts 97°
2026-05-08 18:44 -7.37909 112.78222 4 ft 106 kts 99°
2026-05-08 18:44 -7.38073 112.79196 162 ft 172 kts 100°
2026-05-08 18:44 -7.38314 112.80597 616 ft 230 kts 98°
2026-05-08 18:45 -7.38602 112.82274 1386 ft 246 kts 102°
2026-05-08 18:45 -7.38113 112.83267 2846 ft 234 kts
2026-05-08 18:45 -7.36275 112.82783 2400 ft 306 kts 317°
2026-05-08 18:45 -7.35516 112.80779 2409 ft 326 kts 280°
2026-05-08 18:46 -7.35150 112.78437 2211 ft 348 kts 276°
2026-05-08 18:46 -7.34422 112.76162 2335 ft 352 kts 318°
2026-05-08 18:46 -7.32271 112.76286 2125 ft 343 kts 54°
2026-05-08 18:46 -7.32565 112.78335 2042 ft 326 kts 151°
2026-05-08 18:47 -7.34062 112.77179 1912 ft 326 kts 256°
2026-05-08 18:47 -7.33910 112.74985 2326 ft 319 kts 276°
2026-05-08 18:47 -7.33652 112.72741 2262 ft 325 kts 275°
2026-05-08 18:47 -7.33379 112.70417 2204 ft 343 kts 276°
2026-05-08 18:48 -7.33053 112.68006 2238 ft 352 kts 277°
2026-05-08 18:48 -7.33496 112.65977 2649 ft 318 kts 195°
2026-05-08 18:48 -7.35139 112.66925 2179 ft 314 kts 141°
2026-05-08 18:48 -7.36570 112.68622 2312 ft 326 kts 100°
2026-05-08 18:49 -7.36844 112.70961 728 ft 360 kts 97°
2026-05-08 18:49 -7.37163 112.73425 299 ft 350 kts 98°
2026-05-08 18:49 -7.37559 112.75815 193 ft 342 kts 98°
2026-05-08 18:49 -7.37914 112.78183 39 ft 342 kts 99°
2026-05-08 18:50 -7.38285 112.80526 211 ft 331 kts 98°
2026-05-08 18:50 -7.38588 112.82712 1355 ft 304 kts 88°
2026-05-08 18:50 -7.37096 112.83918 2056 ft 311 kts
2026-05-08 18:50 -7.35649 112.84005 2372 ft 317 kts 354°
2026-05-08 18:51 -7.34398 112.82337 2444 ft 334 kts 280°
2026-05-08 18:51 -7.34163 112.79905 1884 ft 358 kts 272°
2026-05-08 18:51 -7.33950 112.76583 1903 ft 353 kts 272°
2026-05-08 18:51 -7.33869 112.74951 1909 ft 351 kts 272°
2026-05-08 18:52 -7.33757 112.72489 1842 ft 353 kts 273°
2026-05-08 18:52 -7.33609 112.70016 1729 ft 355 kts 272°
2026-05-08 18:52 -7.33431 112.67537 1563 ft 354 kts 275°
2026-05-08 18:52 -7.33150 112.65079 1414 ft 354 kts 277°
2026-05-08 18:53 -7.32804 112.62626 1285 ft 353 kts 279°
2026-05-08 18:53 -7.30806 112.62977 1626 ft 331 kts 84°
2026-05-08 18:53 -7.31126 112.64456 1920 ft 323 kts 135°
2026-05-08 18:53 -7.32463 112.63446 1955 ft 343 kts 270°
2026-05-08 18:54 -7.32130 112.61015 1846 ft 353 kts 279°
2026-05-08 18:54 -7.31362 112.58791 1798 ft 350 kts 329°
2026-05-08 18:54 -7.29113 112.59085 1440 ft 347 kts 45°
2026-05-08 18:54 -7.28164 112.61219 1552 ft 337 kts 90°
2026-05-08 18:55 -7.31142 112.63547 1998 ft 341 kts 208°
2026-05-08 18:55 -7.32141 112.61488 1872 ft 353 kts 273°
2026-05-08 18:55 -7.30881 112.59446 998 ft 359 kts 335°
2026-05-08 18:56 -7.28945 112.60109 1627 ft 328 kts 69°
2026-05-08 18:56 -7.29528 112.62129 2037 ft 321 kts 150°
2026-05-08 18:56 -7.31536 112.61661 1955 ft 348 kts 236°
2026-05-08 18:56 -7.31794 112.59242 1285 ft 359 kts 281°
2026-05-08 18:57 -7.29975 112.57988 1253 ft 327 kts 11°
2026-05-08 18:57 -7.29327 112.59505 1112 ft 257 kts 129°
2026-05-08 18:57 -7.30851 112.60138 819 ft 229 kts 158°
2026-05-08 18:57 -7.32257 112.60677 686 ft 205 kts 157°
2026-05-08 18:58 -7.33366 112.61366 738 ft 174 kts 135°
2026-05-08 18:58 -7.33880 112.62372 581 ft 164 kts 101°
2026-05-08 18:58 -7.34062 112.63434 544 ft 147 kts 99°
2026-05-08 18:58 -7.34228 112.64406 496 ft 133 kts 103°
2026-05-08 18:59 -7.34419 112.65258 530 ft 114 kts 100°
2026-05-08 18:59 -7.34599 112.65992 462 ft 106 kts 109°
2026-05-08 18:59 -7.34883 112.66715 556 ft 122 kts 108°
2026-05-08 18:59 -7.35071 112.67595 730 ft 134 kts 95°
2026-05-08 19:00 -7.35187 112.68580 808 ft 148 kts 102°
2026-05-08 19:00 -7.35460 112.69639 806 ft 159 kts 110°
2026-05-08 19:00 -7.36166 112.70584 1011 ft 183 kts 129°
2026-05-08 19:00 -7.36749 112.71555 912 ft 143 kts 110°
2026-05-08 19:01 -7.36961 112.72468 674 ft 125 kts 99°
2026-05-08 19:01 -7.37101 112.73307 544 ft 117 kts 99°
2026-05-08 19:01 -7.37261 112.74227 521 ft 167 kts 100°
2026-05-08 19:01 -7.37450 112.75374 352 ft 148 kts 99°
2026-05-08 19:02 -7.37604 112.76301 148 ft 123 kts 98°
2026-05-08 19:02 -7.37725 112.77062 51 ft 101 kts 98°
2026-05-08 19:02 -7.37822 112.77692 4 ft 80 kts 96°
2026-05-08 19:02 -7.37917 112.78265 4 ft 115 kts 99°
2026-05-08 19:03 -7.38099 112.79269 400 ft 162 kts 99°
2026-05-08 19:03 -7.38321 112.80534 950 ft 210 kts 101°
2026-05-08 19:03 -7.38588 112.82135 1795 ft 233 kts 100°
2026-05-08 19:03 -7.37689 112.82934 2937 ft 250 kts
2026-05-08 19:04 -7.35869 112.82553 2549 ft 301 kts 301°
2026-05-08 19:04 -7.35276 112.80260 1899 ft 351 kts 280°
2026-05-08 19:04 -7.34814 112.77835 1947 ft 355 kts 280°
2026-05-08 19:04 -7.34381 112.75404 2027 ft 351 kts 279°
2026-05-08 19:05 -7.33969 112.73015 2029 ft 353 kts 279°
2026-05-08 19:05 -7.33557 112.70583 2118 ft 350 kts 278°
2026-05-08 19:05 -7.33202 112.68160 2310 ft 349 kts 276°
2026-05-08 19:05 -7.34957 112.67151 2036 ft 342 kts 186°
2026-05-08 19:06 -7.36834 112.67826 1900 ft 327 kts 83°
2026-05-08 19:06 -7.36730 112.70228 1029 ft 351 kts 94°
2026-05-08 19:06 -7.37017 112.72662 650 ft 349 kts 98°
2026-05-08 19:06 -7.37365 112.74800 367 ft 175 kts 98°
2026-05-08 19:07 -7.37530 112.75879 250 ft 130 kts 99°
2026-05-08 19:07 -7.37658 112.76663 96 ft 104 kts 99°
2026-05-08 19:07 -7.37771 112.77329 19 ft 91 kts 98°
2026-05-08 19:07 -7.37855 112.77861 5 ft 65 kts 102°
2026-05-08 19:08 -7.37910 112.78214 4 ft 45 kts 101°
2026-05-08 19:08 -7.37970 112.78514 4 ft 42 kts 99°
2026-05-08 19:08 -7.38013 112.78640 5 ft 13 kts 160°
2026-05-08 19:08 -7.38081 112.78665 5 ft 5 kts 164°
2026-05-08 19:09 -7.38138 112.78666 5 ft 14 kts 186°
2026-05-08 19:09 -7.38232 112.78652 5 ft 13 kts 189°
2026-05-08 19:09 -7.38333 112.78636 5 ft 18 kts 187°
2026-05-08 19:09 -7.38444 112.78698 5 ft 20 kts 123°
2026-05-08 19:10 -7.38532 112.78778 5 ft 14 kts 191°
2026-05-08 19:10 -7.38591 112.78773 5 ft 6 kts 191°
2026-05-08 19:10 -7.38617 112.78774 5 ft 2 kts 108°
2026-05-08 19:10 -7.38601 112.78780 5 ft 6 kts
2026-05-08 19:11 -7.38581 112.78783 5 ft 0 kts